When you browse on this site, cookies collect data to enhance your experience and personalize the content and advertising you see.
Visit our Privacy Policy to learn more. By continuing to use the site, you agree to this use of cookies and data.
  • In Hungary
  • List of Countries
  • For 7 days
  • Water Temperature
  • Weather Map
  • News
  • Weather Widgets
  • user-avatar
    Login

    Hourly Weather Zion

    Today, 8 December, Sunday

    Time Temperature Precipitation Wind Pressure Humidity
    00:00 0°C° 0 mm 8 mps 746 mmHg 57%
    01:00 0°C° 0 mm 8 mps 745 mmHg 59%
    02:00 -1°C° 0 mm 8 mps 744 mmHg 62%
    03:00 -1°C° 0 mm 9 mps 744 mmHg 64%
    04:00 -1°C° 0 mm 8 mps 743 mmHg 71%
    05:00 -1°C° 0 mm 8 mps 743 mmHg 79%
    06:00 -1°C° 0 mm 8 mps 742 mmHg 86%
    07:00 0°C° 0 mm 8 mps 742 mmHg 86%
    08:00 +1°C° 0 mm 8 mps 742 mmHg 86%
    09:00 +1°C° 0 mm 8 mps 741 mmHg 86%
    10:00 +3°C° 0 mm 7 mps 741 mmHg 84%
    11:00 +3°C° 0 mm 7 mps 741 mmHg 83%
    12:00 +3°C° 0 mm 6 mps 741 mmHg 82%
    13:00 +4°C° 0 mm 6 mps 740 mmHg 81%
    14:00 +5°C° 0 mm 5 mps 740 mmHg 81%
    15:00 +5°C° 0 mm 4 mps 740 mmHg 81%
    16:00 +5°C° 0 mm 4 mps 740 mmHg 83%
    17:00 +5°C° 0 mm 3 mps 740 mmHg 85%
    18:00 +4°C° 0 mm 3 mps 740 mmHg 87%
    19:00 +4°C° 0 mm 3 mps 740 mmHg 88%
    20:00 +5°C° 0 mm 2 mps 739 mmHg 89%
    21:00 +5°C° 0 mm 2 mps 739 mmHg 90%
    22:00 +5°C° 0.3 mm 2 mps 739 mmHg 92%
    23:00 +5°C° 0.3 mm 2 mps 738 mmHg 94%

    Tomorrow, 9 December, Monday

    Time Temperature Precipitation Wind Pressure Humidity
    00:00 +4°C° 0.3 mm 3 mps 738 mmHg 96%
    01:00 +5°C° 0.8 mm 3 mps 737 mmHg 97%
    02:00 +5°C° 0.8 mm 3 mps 736 mmHg 97%
    03:00 +5°C° 0.8 mm 3 mps 735 mmHg 98%
    04:00 +6°C° 0.2 mm 2 mps 735 mmHg 98%
    05:00 +6°C° 0.2 mm 2 mps 734 mmHg 98%
    06:00 +6°C° 0.2 mm 2 mps 734 mmHg 98%
    07:00 +6°C° 0.1 mm 2 mps 733 mmHg 97%
    08:00 +6°C° 0.1 mm 2 mps 733 mmHg 97%
    09:00 +5°C° 0.1 mm 3 mps 732 mmHg 97%
    10:00 +7°C° 0.1 mm 3 mps 732 mmHg 96%
    11:00 +7°C° 0.1 mm 3 mps 731 mmHg 95%
    12:00 +6°C° 0.1 mm 4 mps 730 mmHg 93%
    13:00 +7°C° 0 mm 4 mps 730 mmHg 91%
    14:00 +7°C° 0 mm 5 mps 730 mmHg 89%
    15:00 +7°C° 0 mm 5 mps 730 mmHg 88%
    16:00 +4°C° 0 mm 6 mps 731 mmHg 87%
    17:00 +2°C° 0 mm 7 mps 732 mmHg 86%
    18:00 -1°C° 0 mm 9 mps 733 mmHg 86%
    19:00 -3°C° 0 mm 9 mps 734 mmHg 81%
    20:00 -4°C° 0 mm 8 mps 736 mmHg 77%
    21:00 -6°C° 0 mm 8 mps 737 mmHg 72%
    22:00 -6°C° 0 mm 8 mps 738 mmHg 70%
    23:00 -7°C° 0 mm 8 mps 739 mmHg 67%

    Day after tomorrow, 10 December, Tuesday

    Time Temperature Precipitation Wind Pressure Humidity
    00:00 -7°C° 0 mm 8 mps 740 mmHg 65%
    01:00 -7°C° 0 mm 7 mps 741 mmHg 64%
    02:00 -8°C° 0 mm 7 mps 741 mmHg 64%
    03:00 -8°C° 0 mm 6 mps 742 mmHg 63%
    04:00 -9°C° 0 mm 6 mps 743 mmHg 63%
    05:00 -9°C° 0 mm 6 mps 744 mmHg 62%
    06:00 -10°C° 0 mm 6 mps 744 mmHg 62%
    07:00 -10°C° 0 mm 6 mps 745 mmHg 60%
    08:00 -10°C° 0 mm 5 mps 746 mmHg 58%
    09:00 -10°C° 0 mm 5 mps 746 mmHg 55%
    10:00 -10°C° 0 mm 5 mps 746 mmHg 50%
    11:00 -8°C° 0 mm 5 mps 747 mmHg 45%
    12:00 -8°C° 0 mm 5 mps 747 mmHg 40%
    13:00 -8°C° 0 mm 5 mps 747 mmHg 39%
    14:00 -8°C° 0 mm 5 mps 747 mmHg 37%
    15:00 -8°C° 0 mm 5 mps 748 mmHg 35%
    16:00 -8°C° 0 mm 5 mps 748 mmHg 36%
    17:00 -10°C° 0 mm 6 mps 748 mmHg 37%
    18:00 -10°C° 0 mm 6 mps 749 mmHg 38%
    19:00 -11°C° 0 mm 6 mps 749 mmHg 42%
    20:00 -11°C° 0 mm 5 mps 750 mmHg 47%
    21:00 -12°C° 0 mm 5 mps 750 mmHg 51%
    22:00 -12°C° 0 mm 5 mps 750 mmHg 53%
    23:00 -13°C° 0 mm 5 mps 750 mmHg 55%

    11 December, Wednesday

    Time Temperature Precipitation Wind Pressure Humidity
    00:00 -13°C° 0 mm 5 mps 751 mmHg 58%
    01:00 -13°C° 0 mm 5 mps 751 mmHg 57%
    02:00 -14°C° 0 mm 5 mps 751 mmHg 56%
    03:00 -14°C° 0 mm 5 mps 752 mmHg 55%
    04:00 -15°C° 0 mm 5 mps 752 mmHg 54%
    05:00 -15°C° 0 mm 5 mps 752 mmHg 53%
    06:00 -15°C° 0 mm 4 mps 753 mmHg 51%
    07:00 -15°C° 0 mm 4 mps 753 mmHg 49%
    08:00 -15°C° 0 mm 4 mps 754 mmHg 46%
    09:00 -15°C° 0 mm 4 mps 755 mmHg 44%
    10:00 -14°C° 0 mm 4 mps 755 mmHg 40%
    11:00 -12°C° 0 mm 4 mps 756 mmHg 37%
    12:00 -11°C° 0 mm 4 mps 756 mmHg 33%
    13:00 -9°C° 0 mm 3 mps 756 mmHg 32%
    14:00 -9°C° 0 mm 3 mps 756 mmHg 31%
    15:00 -8°C° 0 mm 3 mps 757 mmHg 29%
    16:00 -8°C° 0 mm 2 mps 757 mmHg 31%
    17:00 -8°C° 0 mm 2 mps 758 mmHg 32%
    18:00 -8°C° 0 mm 2 mps 758 mmHg 33%
    19:00 -8°C° 0 mm 2 mps 758 mmHg 34%
    20:00 -8°C° 0 mm 2 mps 758 mmHg 35%
    21:00 -8°C° 0 mm 2 mps 758 mmHg 36%
    22:00 -7°C° 0 mm 2 mps 758 mmHg 40%
    23:00 -7°C° 0 mm 2 mps 758 mmHg 44%

    12 December, Thursday

    Time Temperature Precipitation Wind Pressure Humidity
    00:00 -7°C° 0 mm 2 mps 758 mmHg 47%
    01:00 -7°C° 0 mm 3 mps 759 mmHg 51%
    02:00 -7°C° 0 mm 3 mps 759 mmHg 55%
    03:00 -6°C° 0 mm 3 mps 759 mmHg 59%
    04:00 -7°C° 0 mm 4 mps 759 mmHg 60%
    05:00 -7°C° 0 mm 4 mps 758 mmHg 62%
    06:00 -5°C° 0 mm 4 mps 758 mmHg 64%
    07:00 -6°C° 0 mm 5 mps 758 mmHg 62%
    08:00 -5°C° 0 mm 6 mps 758 mmHg 61%
    09:00 -5°C° 0 mm 6 mps 758 mmHg 60%
    10:00 -4°C° 0 mm 6 mps 757 mmHg 58%
    11:00 -4°C° 0 mm 6 mps 757 mmHg 55%
    12:00 -3°C° 0 mm 7 mps 756 mmHg 53%
    13:00 -3°C° 0 mm 7 mps 756 mmHg 51%
    14:00 -3°C° 0 mm 7 mps 755 mmHg 49%
    15:00 -3°C° 0 mm 7 mps 754 mmHg 47%
    16:00 -3°C° 0 mm 7 mps 754 mmHg 49%
    17:00 -3°C° 0 mm 7 mps 753 mmHg 51%
    18:00 -3°C° 0 mm 7 mps 753 mmHg 52%
    19:00 -3°C° 0 mm 7 mps 753 mmHg 51%
    20:00 -3°C° 0 mm 6 mps 752 mmHg 50%
    21:00 -3°C° 0 mm 6 mps 752 mmHg 49%
    22:00 -3°C° 0 mm 6 mps 752 mmHg 48%
    23:00 -4°C° 0 mm 5 mps 751 mmHg 48%

    13 December, Friday

    Time Temperature Precipitation Wind Pressure Humidity
    00:00 -4°C° 0 mm 5 mps 751 mmHg 47%
    01:00 -4°C° 0 mm 5 mps 750 mmHg 49%
    02:00 -3°C° 0 mm 4 mps 750 mmHg 50%
    03:00 -3°C° 0 mm 4 mps 749 mmHg 51%
    04:00 -3°C° 0 mm 4 mps 749 mmHg 53%
    05:00 -3°C° 0 mm 4 mps 749 mmHg 55%
    06:00 -4°C° 0 mm 4 mps 748 mmHg 57%
    07:00 -2°C° 0 mm 3 mps 748 mmHg 56%
    08:00 -2°C° 0 mm 3 mps 748 mmHg 56%
    09:00 -1°C° 0 mm 3 mps 748 mmHg 56%
    10:00 -1°C° 0 mm 3 mps 747 mmHg 55%
    11:00 0°C° 0 mm 3 mps 747 mmHg 54%
    12:00 +1°C° 0 mm 3 mps 746 mmHg 52%
    13:00 +1°C° 0 mm 3 mps 746 mmHg 53%
    14:00 +1°C° 0 mm 3 mps 745 mmHg 54%
    15:00 +1°C° 0 mm 3 mps 744 mmHg 55%
    16:00 0°C° 0 mm 3 mps 744 mmHg 58%
    17:00 0°C° 0 mm 3 mps 744 mmHg 61%
    18:00 -1°C° 0 mm 3 mps 744 mmHg 63%
    19:00 -1°C° 0 mm 3 mps 744 mmHg 65%
    20:00 -1°C° 0 mm 2 mps 743 mmHg 68%
    21:00 -1°C° 0 mm 2 mps 743 mmHg 70%
    22:00 -1°C° 0 mm 2 mps 743 mmHg 72%
    23:00 -1°C° 0 mm 2 mps 742 mmHg 75%
    Show more